This demonstration page uses our WeatherBlox Daily Observations layout. Learn more.

Left ArrowRight Arrow

Hourly Observations for October 16, 2019

Temp ( °F °C ) Dew Point ( °F °C ) Humidity (%) Winds ( mph kmh ) Pressure ( in mb ) Visibility ( mi km ) Precip ( " mm )
12:53 am 00:53 Clear 64 17.8 33 0.6 32 32 NNE 14 22 30.05 1018 10 16 0.00 0.00
1:53 am 01:53 Clear 62 16.7 32 0 32 32 NE 17 28 30.06 1018 10 16 0.00 0.00
2:53 am 02:53 Clear 59 15 32 0 36 36 NE 9 15 30.08 1019 10 16 0.00 0.00
3:53 am 03:53 Clear 55 12.8 32 0 42 42 N 7 11 30.13 1020 10 16 0.00 0.00
4:53 am 04:53 Clear 54 12.2 32 0 43 43 NNW 5 7 30.15 1021 10 16 0.00 0.00
5:53 am 05:53 Clear 50 10 32 0 50 50 NNE 10 17 30.16 1021 10 16 0.00 0.00
6:53 am 06:53 Clear 49 9.4 32 0 52 52 NNW 7 11 30.17 1022 10 16 0.00 0.00
7:53 am 07:53 Clear 46 7.8 32 0 58 58 N 8 13 30.20 1023 10 16 0.00 0.00
8:53 am 08:53 Sunny 50 10 33 0.6 52 52 N 8 13 30.22 1024 10 16 0.00 0.00
9:53 am 09:53 Sunny 56 13.3 32 0 40 40 N 9 15 30.23 1024 10 16 0.00 0.00
10:53 am 10:53 Sunny 60 15.6 30 -1.1 32 32 ENE 7 11 30.23 1024 10 16 0.00 0.00
11:53 am 11:53 Sunny 64 17.8 28 -2.2 26 26 ESE 6 9 30.21 1023 10 16 0.00 0.00
12:53 pm 12:53 Sunny 67 19.4 26 -3.3 21 21 ESE 7 11 30.20 1023 10 16 0.00 0.00
1:53 pm 13:53 Sunny 69 20.6 26 -3.3 20 20 VRB 5 7 30.15 1021 10 16 0.00 0.00
2:53 pm 14:53 Sunny 72 22.2 27 -2.8 19 19 NNE 5 7 30.11 1020 10 16 0.00 0.00
3:53 pm 15:53 Sunny 74 23.3 26 -3.3 17 17 VRB 6 9 30.08 1019 10 16 0.00 0.00
4:53 pm 16:53 Sunny 74 23.3 25 -3.9 16 16 SE 7 11 30.07 1018 10 16 0.00 0.00
5:53 pm 17:53 Sunny 74 23.3 25 -3.9 16 16 SSE 10 17 30.06 1018 10 16 0.00 0.00
6:53 pm 18:53 Sunny 72 22.2 26 -3.3 18 18 SE 7 11 30.06 1018 10 16 0.00 0.00
7:53 pm 19:53 Clear 65 18.3 28 -2.2 25 25 SSE 7 11 30.08 1019 10 16 0.00 0.00
8:53 pm 20:53 Clear 61 16.1 28 -2.2 29 29 SSE 6 9 30.08 1019 10 16 0.00 0.00
9:53 pm 21:53 Clear 57 13.9 28 -2.2 33 33 SSE 6 9 30.07 1018 10 16 0.00 0.00
10:53 pm 22:53 Clear 57 13.9 28 -2.2 33 33 SSE 3 6 30.06 1018 10 16 0.00 0.00
11:53 pm 23:53 Clear 53 11.7 28 -2.2 38 38 ESE 5 7 30.05 1018 10 16 0.00 0.00

Powered by AerisWeather